Simultaneous Nadir Overpasses (SNOs) Predictions

Prediction of SNOs between NOAA-19 and TERRA Satellite Orbit:

Table of predicted SNOs for the next 14.0 days since TLE Epoch: 11/19/2022
Index Date (NOAA-19) Time (NOAA-19) Lat,Lon (NOAA-19) SZA (NOAA-19 ) Date (TERRA) Time (TERRA) Lat,Lon (TERRA) SZA (TERRA ) Distance(km) Time Diff (sec)
1 11/19/2022 16:44:18 80.90, -35.22 102.41 11/19/2022 16:44:20 80.90, -35.33 102.40 2.11 2
2 11/21/2022 20:35:04 -80.90, 86.99 77.13 11/21/2022 20:35:21 -80.90, 86.88 77.14 2.01 17
3 11/24/2022 00:25:53 80.90,-150.81 103.30 11/24/2022 00:26:20 80.90,-150.93 103.30 2.19 27
4 11/24/2022 01:16:51 -80.90, 16.75 76.67 11/24/2022 01:15:44 -80.89, 16.67 76.71 1.60 67
5 11/26/2022 04:16:40 -80.90, -28.64 76.31 11/26/2022 04:17:20 -80.91, -28.48 76.27 3.11 40
6 11/26/2022 05:07:39 80.90, 139.04 103.74 11/26/2022 05:06:42 80.91, 139.12 103.73 1.78 57
7 11/28/2022 08:07:28 80.91, 93.37 104.05 11/28/2022 08:08:19 80.90, 93.55 104.08 3.38 51
8 11/28/2022 08:58:27 -80.90, -98.99 75.92 11/28/2022 08:57:43 -80.90, -98.83 75.93 2.96 44
9 11/30/2022 11:58:15 -80.91,-144.11 75.60 11/30/2022 11:59:19 -80.91,-144.11 75.57 0.14 64
10 11/30/2022 12:49:13 80.90, 23.49 104.45 11/30/2022 12:48:41 80.90, 23.48 104.43 0.37 32



Historial Predications of SNOs between NOAA-19 and TERRA
